This is the latest recevied weather packets stored in our database for station/object WX5KDM. If no packets are shown the sender has not sent any weather packets the latest 10 day(s).
| Time | Temp. | Humidity | Pressure | Rain* | Wind** | Luminosity | Snow |
|---|---|---|---|---|---|---|---|
| 1788120711 | 33.89° C | 56% | 1018 hPa | 0 mm | - | - | - |
| 1788120406 | 33.33° C | 58% | 1018.3 hPa | 0 mm | - | - | - |
| 1788120105 | 33.33° C | 58% | 1018.3 hPa | 0 mm | - | - | - |
| 1788119801 | 33.33° C | 58% | 1018.3 hPa | 0 mm | - | - | - |
| 1788119499 | 33.33° C | 58% | 1018.4 hPa | 0 mm | - | - | - |
| 1788119198 | 33.33° C | 57% | 1018.5 hPa | 0 mm | - | - | - |
| 1788118898 | 33.33° C | 57% | 1018.5 hPa | 0 mm | - | - | - |
| 1788118592 | 33.33° C | 58% | 1018.6 hPa | 0 mm | - | - | - |
| 1788118287 | 33.89° C | 55% | 1018.6 hPa | 0 mm | - | - | - |
| 1788117983 | 34.44° C | 53% | 1018.7 hPa | 0 mm | - | - | - |
| 1788117683 | 33.89° C | 55% | 1018.9 hPa | 0 mm | - | - | - |
| 1788117378 | 33.89° C | 57% | 1018.8 hPa | 0 mm | - | - | - |
| 1788117074 | 33.33° C | 57% | 1018.8 hPa | 0 mm | - | - | - |
| 1788116769 | 33.33° C | 56% | 1019.1 hPa | 0 mm | - | - | - |
| 1788116464 | 33.33° C | 57% | 1018.9 hPa | 0 mm | - | - | - |
| 1788116163 | 33.89° C | 56% | 1019.1 hPa | 0 mm | - | - | - |
| 1788115859 | 33.89° C | 56% | 1019.2 hPa | 0 mm | - | - | - |
| 1788115552 | 34.44° C | 55% | 1019 hPa | 0 mm | - | - | - |
| 1788115247 | 33.89° C | 57% | 1019 hPa | 0 mm | - | - | - |
| 1788114941 | 33.89° C | 55% | 1019.1 hPa | 0 mm | - | - | - |
| 1788114638 | 33.33° C | 58% | 1019.2 hPa | 0 mm | - | - | - |
| 1788114333 | 33.33° C | 57% | 1019.4 hPa | 0 mm | - | - | - |
| 1788114029 | 32.78° C | 60% | 1019.4 hPa | 0 mm | - | - | - |
| 1788113724 | 32.78° C | 60% | 1019.5 hPa | 0 mm | - | - | - |
| 1788113424 | 32.78° C | 59% | 1019.3 hPa | 0 mm | - | - | - |
* Rain latest hour (hover to see other rain measurements)
** Current wind speed in m/s (hover to see current wind gust speed)